SCP
3 3 3 3 4 4 4 4 3 2 2 2 1 1 1 1 1 1 1 1 1 1 1 1 1 1 1 2 2 2 3 2 2 2 3 4 3 3 2 2 2 1 1
3 3 3 3 3 3 3 3 3 3 2 2 2 1 1 1 1 1 1 1 1 1 1 1 1 1 1 2 2 3 3 3 2 2 3 4 3 3 3 2 2 1 1
2 2 2 3 2 2 2 2 3 3 3 3 2 1 1 1 1 1 1 1 1 1 1 1 1 1 1 1 2 3 3 4 3 3 3 3 3 3 2 2 2 1 1
1 1 2 2 2 2 2 2 3 3 3 3 2 2 1 1 1 1 1 1 1 1 1 1 1 1 1 1 1 2 3 3 3 3 3 3 3 2 2 2 2 2 2
1 1 1 2 2 2 2 2 2 2 2 2 2 2 1 1 1 1 1 1 1 1 1 1 1 1 1 1 1 1 2 2 2 3 2 2 2 2 2 2 2 2 2
0 0 1 1 1 1 1 1 1 1 1 1 1 1 1 1 1 0 1 1 1 1 1 1 1 1 1 0 0 0 1 1 1 2 2 2 2 1 2 2 2 2 2
0 0 0 0 1 1 1 1 1 1 1 1 1 1 1 1 0 0 0 1 1 1 1 1 1 1 0 0 0 0 0 0 0 1 2 2 1 1 1 1 2 2 2
0 0 0 0 0 0 0 0 1 1 1 1 1 1 1 1 0 0 0 0 1 1 1 1 1 1 1 0 0 0 0 0 0 0 1 1 1 1 1 1 1 1 1
0 0 0 0 0 0 0 1 1 1 1 1 1 1 1 1 0 0 0 0 0 1 1 1 1 1 0 0 0 0 0 0 0 0 0 1 1 1 1 1 1 1 1
0 0 0 0 1 1 1 1 1 1 1 1 1 0 0 0 0 0 0 0 0 1 1 1 1 0 0 0 0 0 0 0 0 0 0 0 1 0 0 1 1 1 1
0 0 1 1 1 1 1 1 1 1 1 1 1 0 0 0 0 0 0 0 0 0 1 0 0 0 0 0 0 0 0 0 0 1 1 1 1 1 1 1 1 1 1
1 1 1 1 1 0 1 1 1 1 1 1 0 0 0 0 0 0 0 0 0 0 1 0 0 0 0 0 0 0 0 0 0 0 1 1 1 1 1 1 1 1 1
1 1 1 1 0 0 1 1 1 1 0 0 0 0 0 0 0 0 0 0 0 0 0 0 0 0 0 0 0 0 0 0 0 0 1 1 1 1 1 1 1 1 1
1 1 1 0 0 0 1 1 1 0 0 0 0 0 0 0 0 0 0 0 0 0 0 0 0 0 0 0 0 0 0 0 0 0 1 1 1 1 1 1 1 1 0
1 0 0 0 0 0 1 0 0 0 0 0 0 0 0 0 0 0 0 0 0 0 0 0 0 0 0 0 0 0 0 0 0 0 1 1 1 1 1 1 1 1 0
0 0 0 0 0 0 0 0 0 0 0 0 0 0 0 0 0 0 0 0 0 0 0 0 0 0 0 0 0 0 0 0 0 0 1 1 1 1 1 1 1 0 0
0 0 0 0 0 0 0 0 0 0 0 0 0 0 0 0 0 0 0 0 0 0 0 0 0 0 0 0 0 0 0 0 1 1 1 1 1 1 1 0 0 0 0
0 0 0 0 0 0 0 0 0 0 0 0 0 0 0 0 0 0 0 0 0 0 0 0 0 0 0 0 0 1 1 1 1 1 1 1 1 1 1 0 0 0 0
0 0 0 0 0 0 0 0 0 0 0 0 0 0 0 0 0 0 0 0 0 0 0 0 0 0 0 0 0 1 1 1 1 1 1 1 1 1 1 0 0 0 0
0 0 0 0 0 0 0 0 0 0 0 0 0 0 0 0 0 0 0 0 0 0 0 0 0 0 0 0 0 0 0 1 1 1 1 1 1 1 1 0 0 0 0
0 0 0 0 0 0 0 0 0 0 0 0 0 0 0 0 0 0 0 0 0 0 0 0 0 0 0 0 0 0 0 0 1 1 1 1 1 1 1 1 0 0 0
0 0 0 0 0 0 0 0 0 0 0 0 0 0 0 0 0 0 0 0 0 0 0 0 0 0 0 0 0 0 0 0 0 1 1 0 0 0 0 0 0 0 0
0 0 0 0 0 0 0 0 0 0 0 0 0 0 0 0 0 0 0 0 0 0 0 0 0 0 0 0 0 0 0 0 0 0 0 0 0 0 0 0 0 0 0
0 0 0 0 0 0 0 0 0 0 0 0 0 0 0 0 0 0 0 0 0 0 0 0 0 0 0 0 0 0 0 0 0 0 0 0 0 0 0 0 0 0 0
0 0 0 0 0 0 0 0 0 0 0 0 0 0 0 0 0 0 0 0 0 0 0 0 0 0 0 0 0 0 0 0 0 0 0 0 0 0 0 0 0 0 0
0 0 0 0 0 0 0 0 0 0 0 0 0 0 0 0 0 0 0 0 0 0 0 0 0 0 0 0 0 0 0 0 0 0 0 0 0 0 0 0 0 0 0
Wind_Speed
6 6 7 7 7 7 6 7 7 7 7 7 7 7 7 7 7 7 7 7 7 6 6 6 6 5 4 4 4 4 4 3 5 3 2 2 3 5 6 5 6 6 6
7 7 7 7 7 7 8 8 8 8 8 8 8 8 8 8 7 8 8 8 7 7 7 6 6 5 6 4 4 5 4 4 4 4 3 2 3 4 6 5 5 5 5
9 9 9 8 8 8 9 8 8 9 8 9 9 9 8 8 8 8 8 8 8 7 7 7 7 6 6 4 4 5 4 4 3 4 4 3 3 4 5 5 4 3 4
10 10 9 9 9 10 10 9 9 9 9 9 9 9 9 9 9 8 8 7 8 7 7 7 6 6 6 6 5 4 4 3 3 3 4 4 4 5 5 5 4 3 4
10 11 9 9 10 10 10 10 10 9 11 9 9 9 8 9 10 9 7 9 7 7 7 7 7 7 7 6 5 5 4 3 3 3 4 3 4 5 5 4 5 4 3
11 11 10 10 11 10 11 10 10 9 10 10 10 10 10 11 11 9 7 7 6 7 7 6 7 7 9 9 9 8 6 5 4 3 3 4 4 5 4 5 5 5 4
11 12 11 11 12 11 13 12 11 10 10 10 10 10 10 10 11 10 8 7 8 7 7 6 8 9 9 8 9 11 10 10 8 5 4 3 3 3 3 4 5 5 3
11 12 12 12 13 12 12 12 11 10 10 9 10 10 9 11 12 11 10 9 9 8 8 7 7 7 7 6 6 7 8 8 9 8 6 5 4 2 2 3 3 3 3
12 12 13 13 13 13 13 12 10 10 10 9 9 10 10 10 11 11 11 7 7 9 8 8 8 8 10 9 6 6 6 6 9 11 9 8 8 6 4 2 3 5 4
13 13 13 13 13 13 13 11 10 9 9 9 9 9 9 9 9 11 12 6 7 7 7 8 11 10 10 11 7 6 6 6 5 6 7 8 8 8 9 7 6 6 5
14 13 13 13 12 12 10 9 9 9 9 9 9 8 8 8 8 11 13 7 7 6 6 6 6 11 12 12 9 6 6 4 4 4 5 6 6 6 7 7 7 6 7
14 14 14 13 12 11 10 9 9 8 8 8 7 7 5 4 5 8 12 12 8 5 5 4 3 7 11 12 9 6 7 4 3 4 4 5 6 6 6 7 7 6 5
14 14 13 13 11 10 10 10 8 7 6 6 5 5 4 3 2 6 9 11 11 6 3 3 3 6 8 8 9 9 7 5 5 5 5 6 5 5 5 5 5 5 4
14 14 12 11 11 10 7 7 7 6 5 5 5 4 3 2 1 2 3 5 7 7 6 5 6 7 6 5 6 6 6 6 6 6 5 4 4 5 5 5 5 5 4
14 13 12 10 9 9 8 6 6 4 3 5 5 5 4 3 2 1 1 2 2 3 4 4 5 5 6 6 6 7 7 7 7 6 5 4 4 5 5 5 5 5 5
12 11 9 9 8 7 7 7 5 5 5 5 5 5 3 2 2 1 0 1 1 2 3 4 5 6 6 7 7 7 7 7 6 6 5 5 5 5 5 5 5 6 6
12 11 9 9 8 8 7 6 6 4 5 6 6 6 5 4 2 2 2 2 2 2 4 5 5 5 6 6 6 6 7 7 6 6 6 5 5 5 6 6 6 6 6
12 11 10 8 8 7 7 6 6 6 4 2 4 6 6 5 4 4 3 2 3 4 5 5 5 5 5 5 5 5 5 6 6 6 5 5 6 6 7 7 7 7 8
11 9 9 9 8 7 6 6 5 6 4 3 1 2 3 3 4 4 4 5 5 5 5 5 4 4 4 4 4 4 5 5 6 5 5 6 6 7 7 7 7 9 8
9 13 12 9 8 7 6 6 5 5 4 3 2 1 1 3 3 4 5 5 5 4 3 3 3 3 3 3 3 4 4 5 5 5 5 6 6 6 7 8 8 8 7
9 10 13 9 7 7 6 6 5 5 4 3 2 2 3 3 2 2 2 3 3 3 2 2 2 2 2 2 3 4 5 5 5 5 5 6 6 6 6 7 8 8 8
9 8 8 8 7 6 7 6 5 4 4 4 2 0 2 3 3 2 0 1 1 1 1 1 1 1 1 2 3 4 4 4 5 5 5 6 6 6 7 7 8 8 8
8 9 8 7 7 7 6 5 5 5 5 4 4 3 1 2 2 2 1 1 1 1 0 0 0 1 1 1 2 2 3 4 4 5 5 6 6 6 7 8 9 10 10
8 9 9 8 7 6 6 6 6 6 6 6 5 4 3 2 2 2 2 2 1 0 0 0 1 2 3 2 2 2 3 3 4 4 6 6 6 6 7 8 9 11 10
8 8 8 7 7 6 6 6 6 7 6 6 6 5 4 3 3 3 2 1 2 2 2 2 2 3 4 5 5 5 6 6 4 3 4 4 6 7 7 9 8 9 9
7 8 7 7 6 6 6 6 6 6 5 5 5 5 4 4 4 3 3 2 3 3 3 3 5 6 6 6 8 8 6 6 5 4 3 4 5 5 7 6 9 8 9
Wind_Direction
317 311 306 301 295 293 288 285 283 280 276 273 270 268 264 256 250 245 245 248 245 244 242 237 235 234 256 270 270 264 248 223 231 229 192 155 156 142 149 153 147 158 171
320 313 305 301 302 302 300 297 296 291 284 278 270 265 262 261 252 245 244 247 244 241 238 236 237 234 231 249 257 260 261 246 221 218 204 175 166 152 154 165 172 173 164
323 317 313 311 308 302 297 294 290 287 286 283 274 268 267 265 261 256 251 247 245 245 242 235 232 226 226 229 240 242 243 254 244 213 209 189 180 177 171 180 178 158 160
321 318 315 313 308 303 299 294 288 285 283 279 277 271 265 263 260 255 251 247 245 245 243 237 232 223 221 216 227 228 227 236 245 224 203 193 191 183 177 175 168 164 163
322 319 314 312 308 304 300 296 291 287 285 282 279 276 270 264 258 252 247 250 243 242 241 236 234 225 222 214 222 215 214 214 224 216 206 203 195 184 184 183 177 157 154
321 316 312 309 307 305 302 298 294 289 286 281 276 274 269 266 264 262 258 257 252 242 240 239 238 227 219 212 212 212 208 208 215 221 212 212 207 199 188 182 171 168 172
318 315 315 313 312 309 307 304 299 295 291 286 281 275 271 264 258 252 251 259 254 241 234 228 242 236 215 210 210 212 216 218 212 213 219 227 234 217 191 185 185 182 174
318 317 317 315 313 309 303 298 297 295 289 284 280 277 274 267 252 237 232 241 252 244 231 221 226 241 238 217 212 214 212 212 210 214 217 223 236 249 222 208 187 161 137
321 321 318 315 310 307 303 300 298 294 290 283 280 275 270 263 244 229 220 232 241 244 234 228 221 228 229 217 215 220 218 217 216 215 208 205 208 220 211 188 178 166 167
323 319 316 313 309 306 301 301 298 292 288 287 282 277 272 262 238 219 212 224 235 239 232 230 229 226 224 211 211 216 223 221 219 205 202 205 205 208 204 197 192 185 171
321 317 315 312 308 302 304 304 300 296 293 288 285 281 273 259 235 213 206 214 226 235 237 226 223 216 210 205 206 209 216 221 220 212 204 201 200 201 201 200 201 197 186
319 316 314 312 311 313 311 307 304 300 297 294 292 291 281 259 230 213 206 214 228 233 245 249 223 204 198 197 200 203 195 205 225 215 208 209 205 203 200 197 196 199 199
319 317 315 313 314 311 309 309 308 305 304 305 301 298 299 293 225 207 210 218 226 233 253 257 212 183 185 196 208 197 191 206 218 221 215 212 207 198 185 179 181 177 176
320 318 316 315 318 317 313 310 311 315 317 315 314 312 311 309 288 204 205 213 220 227 237 226 198 184 197 208 188 192 208 216 211 219 217 215 199 185 181 171 173 168 164
322 320 317 317 316 315 314 311 311 316 310 301 311 318 322 327 359 340 263 226 223 219 220 210 205 195 204 210 206 200 204 208 214 219 211 207 199 188 178 172 170 166 168
323 322 320 318 317 316 316 317 299 283 272 261 267 287 304 310 300 274 233 184 219 243 226 222 219 216 215 213 210 208 204 206 207 208 207 199 196 188 177 173 169 172 171
321 318 317 317 316 316 316 316 315 295 261 257 255 260 262 275 277 252 235 233 232 217 229 232 227 222 222 220 213 209 204 202 200 203 201 193 189 187 178 174 173 172 170
321 317 316 315 315 315 317 317 315 317 311 280 231 235 242 242 247 245 229 233 228 222 234 234 229 226 227 221 216 210 200 194 193 197 193 190 187 186 178 174 175 173 167
322 319 320 316 315 315 317 320 320 318 315 312 261 182 227 230 232 234 218 237 245 234 232 232 229 223 225 218 213 203 195 190 187 190 193 187 185 181 177 173 170 168 164
322 320 319 318 317 320 328 332 333 333 334 338 340 15 178 218 229 210 216 234 243 247 249 247 240 225 215 205 201 198 195 187 182 189 191 184 182 176 172 170 168 165 163
323 322 322 321 324 333 337 340 336 334 340 349 355 14 330 292 283 255 219 220 232 240 249 260 255 234 201 185 189 189 187 186 185 187 187 179 175 170 165 165 163 163 162
322 324 326 328 333 339 337 334 335 346 352 357 348 29 303 295 313 314 287 226 229 234 257 284 278 250 202 185 185 183 182 183 181 178 176 172 169 163 160 161 161 163 162
326 328 329 331 335 337 340 350 356 360 1 3 359 5 8 340 344 347 24 37 27 8 342 234 206 220 185 165 160 177 179 176 168 166 164 163 162 161 161 162 163 162 161
330 334 337 340 346 352 357 1 4 7 9 11 12 14 16 6 356 16 35 33 27 58 66 87 106 116 123 123 121 117 102 110 133 152 156 152 153 155 155 156 159 162 160
340 343 344 348 350 356 1 3 8 7 8 16 14 11 9 12 21 33 40 51 66 67 76 74 70 87 102 104 99 88 79 80 93 123 136 134 138 142 146 150 150 153 154
343 348 351 352 354 358 1 2 4 4 6 11 11 12 16 25 33 40 41 57 74 77 72 70 72 78 89 91 92 92 87 83 81 85 123 131 131 131 133 135 140 145 149